This is the latest recevied weather packets stored in our database for station/object 9W2CHF-2. If no packets are shown the sender has not sent any weather packets the latest 10 day(s).
| Time | Temp. | Humidity | Pressure | Rain* | Wind** | Luminosity | Snow |
|---|---|---|---|---|---|---|---|
| 1788066954 | 33.89° C | 53% | 1012.1 hPa | - | - | - | - |
| 1788066053 | 33.89° C | 54% | 1012.3 hPa | - | - | - | - |
| 1788065153 | 33.89° C | 54% | 1012.4 hPa | - | - | - | - |
| 1788064253 | 33.33° C | 55% | 1012.4 hPa | - | - | - | - |
| 1788063353 | 33.33° C | 55% | 1012.7 hPa | - | - | - | - |
| 1788062452 | 33.33° C | 57% | 1012.7 hPa | - | - | - | - |
| 1788061552 | 33.33° C | 58% | 1012.9 hPa | - | - | - | - |
| 1788060652 | 33.33° C | 58% | 1013.2 hPa | - | - | - | - |
| 1788059752 | 33.33° C | 60% | 1013.5 hPa | - | - | - | - |
| 1788058852 | 33.33° C | 60% | 1013.6 hPa | - | - | - | - |
| 1788057952 | 33.33° C | 59% | 1013.6 hPa | - | - | - | - |
| 1788057052 | 33.33° C | 60% | 1013.5 hPa | - | - | - | - |
| 1788056152 | 33.33° C | 62% | 1013.6 hPa | - | - | - | - |
| 1788055252 | 32.78° C | 64% | 1013.6 hPa | - | - | - | - |
| 1788054351 | 32.78° C | 65% | 1013.7 hPa | - | - | - | - |
| 1788053451 | 32.78° C | 66% | 1013.7 hPa | - | - | - | - |
| 1788052551 | 32.78° C | 69% | 1013.6 hPa | - | - | - | - |
| 1788051651 | 32.78° C | 70% | 1013.6 hPa | - | - | - | - |
| 1788050751 | 32.78° C | 71% | 1013.4 hPa | - | - | - | - |
| 1788049850 | 32.78° C | 71% | 1013.2 hPa | - | - | - | - |
| 1788048950 | 32.78° C | 69% | 1013.1 hPa | - | - | - | - |
| 1788048050 | 32.78° C | 70% | 1013.1 hPa | - | - | - | - |
| 1788047150 | 32.22° C | 70% | 1013.1 hPa | - | - | - | - |
| 1788046250 | 32.22° C | 69% | 1012.9 hPa | - | - | - | - |
| 1788045350 | 32.22° C | 69% | 1013.1 hPa | - | - | - | - |
* Rain since midnight (hover to see other rain measurements)
** Current wind speed in m/s (hover to see current wind gust speed)